User: anonymous   Login
Location: Unspecified
(0.0000°N, 0.0000°E)
Time: 09:32:51
(UTC+00:00)
Language:

XMM - Orbit

View from above orbital plane
View from above orbital plane
View from above satellite
View from above satellite

Ground track
Ground track

The orbit data is extracted from the following two-line orbital elements,

1 25989U 99066A   18018.05595824 -.00000351  00000-0  00000+0 0  9998
2 25989  69.8091 353.4136 8094143  96.0261   0.2882  0.50136069 21964
Epoch (UTC): 18 January 2018 01:20:34
Eccentricity: 0.8094143
inclination: 69.8091°
perigee height: 6378 km
apogee height: 114728 km
right ascension of ascending node: 353.4136°
argument of perigee: 96.0261°
revolutions per day: 0.50136069
mean anomaly at epoch: 0.2882°
orbit number at epoch: 2196

The dashed part of the orbit path shows where the satellite is in the earth's shadow,  

DLR